Content
SEND FEEDBACK

Daily
Averages
Monthly
Summary
United States of America

ST. LOUIS - SAINT LOUIS UNIVERSITY, MISSOURI


Home > North America > United States > Missouri
Elevation: 177 meters     Latitude: 38 38N     Longitude: 090 14W

WEATHER
 
SELECT A DAY
Number of Records: 189,112;   Date Range: 1/1/95 - 10/22/14
 
SHARE

PRINT THIS DATA

[ ← Previous Day ]
WEATHER ALMANAC - 14 MAY, 2013
[ Next Day → ]
[ °F ]   °C
Weather ElementAverageHighLow
Temperature24 °C33.3 °C (4:53 pm)12.2 °C (2:53 am)
Dewpoint10 °C13.3 °C (10:53 am)7.2 °C (1:53 am)
Humidity45.4 %77 % (5:53 am)25 % (4:53 pm)
Barometer1011.9 hPa1015.6 hPa (1:53 am)1009.1 hPa (6:53 pm)
Wind Speed11.3 km/h20.4 km/h (2:53 pm)
Wind Gust29.6 km/h (3:53 pm)
Weather ElementAverage
Visibility16.1 km
Wind DirectionS (180.4 °)

Weather ElementTotal
Precipitation---
Cooling Degree Days4.4 (Base 18.3)
Growing Degree Days12.8 (Base 10)
Averaged from 23 records on 14 May, 2013
WEATHER CONDITIONS BREAKOUT
WIND DIRECTION BREAKOUT
WEATHER BY HOUR - 14 MAY, 2013
[ °F ]   °C
Local TimeTemperatureDewpointHumidityBarometerVisibilityWind DirectionWind SpeedGust SpeedPrecipitationEventsConditions
1:53 AM13.3 °C7.2 °C67 %1015.6 hPa16.1 kmSSE (150°)5.6 km/hClear
2:53 AM12.2 °C7.2 °C72 %1015.2 hPa16.1 kmSSE (150°)7.4 km/hClear
3:53 AM12.2 °C7.2 °C72 %1014.6 hPa16.1 kmSSE (160°)7.4 km/hClear
4:53 AM12.2 °C7.8 °C75 %1014.6 hPa16.1 kmSSE (160°)5.6 km/hClear
5:53 AM12.2 °C8.3 °C77 %1014.2 hPa16.1 kmSSE (160°)9.3 km/hClear
6:53 AM13.3 °C8.9 °C75 %1014.2 hPa16.1 kmSSE (160°)7.4 km/hClear
7:53 AM16.1 °C10.6 °C70 %1013.9 hPa16.1 kmSSE (160°)7.4 km/hClear
8:53 AM20.6 °C11.7 °C57 %1013.2 hPa16.1 kmVariable9.3 km/hClear
9:53 AM22.8 °C12.8 °C53 %1012.5 hPa16.1 kmVariable9.3 km/hClear
10:53 AM26.1 °C13.3 °C45 %1012.5 hPa16.1 kmSW (220°)13 km/hClear
11:53 AM28.9 °C12.2 °C35 %1012.2 hPa16.1 kmSW (230°)14.8 km/hClear
12:53 PM30.6 °C12.2 °C32 %1011.2 hPa16.1 kmVariable11.1 km/hClear
1:53 PM31.7 °C12.2 °C30 %1010.8 hPa16.1 kmSSW (200°)16.7 km/hClear
2:53 PM32.8 °C12.2 °C28 %1010.5 hPa16.1 kmWSW (250°)20.4 km/hClear
3:53 PM32.8 °C11.7 °C27 %1010.2 hPa16.1 kmWSW (250°)18.5 km/h29.6 km/hClear
4:53 PM33.3 °C10.6 °C25 %1009.8 hPa16.1 kmWSW (240°)16.7 km/hClear
5:53 PM32.8 °C10.6 °C25 %1009.5 hPa16.1 kmWSW (240°)16.7 km/h25.9 km/hClear
6:53 PM31.7 °C9.4 °C25 %1009.1 hPa16.1 kmWSW (250°)14.8 km/h27.8 km/hClear
7:53 PM30.6 °C8.3 °C25 %1009.5 hPa16.1 kmWSW (240°)11.1 km/hClear
8:53 PM28.9 °C8.3 °C27 %1009.8 hPa14.5 kmWSW (240°)9.3 km/hClear
9:53 PM26.7 °C8.9 °C32 %1010.8 hPa16.1 kmSW (230°)7.4 km/hClear
10:53 PM25.6 °C8.9 °C35 %1010.8 hPa16.1 kmSW (230°)9.3 km/hClear
11:53 PM25 °C8.9 °C36 %1011.2 hPa16.1 kmSW (230°)9.3 km/hClear
Hourly data recorded from KCPS, located 0 kilometers away from St. Louis - Saint Louis University, Missouri







STORIES FROM OUR PARTNERS